| time (UTC) | temp F | wind direction | speed MPH | gust MPH | rain 1hr in | rain 24hr in | rain mn in | humidity % | barometer mb |
| 20260504110517 | 45 | 226 | 3.0 | 5.0 | 0.00 | 0.00 | 0.00 | 60 | 1011.4 |
| 20260504100517 | 42 | 248 | 1.0 | 5.0 | 0.00 | 0.00 | 0.00 | 64 | 1011.2 |
| 20260504081518 | 44 | 236 | 5.0 | 7.0 | 0.00 | 0.00 | 0.00 | 59 | 1011.4 |
| 20260504081017 | 45 | 211 | 4.0 | 8.0 | 0.00 | 0.00 | 0.00 | 59 | 1011.5 |
| 20260504080518 | 45 | 228 | 4.0 | 8.0 | 0.00 | 0.00 | 0.00 | 58 | 1011.4 |
| 20260504050529 | 46 | 267 | 7.0 | 12.0 | 0.00 | 0.00 | 0.00 | 55 | 1011.1 |
| 20260504050018 | 46 | 238 | 6.0 | 12.0 | 0.00 | 0.00 | 0.00 | 55 | 1011.1 |
| 20260504045519 | 47 | 225 | 7.0 | 12.0 | 0.00 | 0.00 | 0.00 | 55 | 1011.1 |
| 20260504045019 | 46 | 224 | 7.0 | 16.0 | 0.00 | 0.00 | 0.00 | 55 | 1011.0 |
| 20260504044519 | 46 | 236 | 8.0 | 16.0 | 0.00 | 0.00 | 0.00 | 55 | 1011.0 |
| 20260504044020 | 46 | 250 | 7.0 | 13.0 | 0.00 | 0.00 | 0.00 | 55 | 1011.1 |
| 20260504043520 | 46 | 252 | 7.0 | 12.0 | 0.00 | 0.00 | 0.00 | 55 | 1011.0 |
| 20260504043020 | 46 | 257 | 7.0 | 13.0 | 0.00 | 0.00 | 0.00 | 55 | 1011.0 |
| 20260504042519 | 47 | 235 | 6.0 | 15.0 | 0.00 | 0.00 | 0.00 | 55 | 1010.9 |
| 20260504042019 | 47 | 208 | 10.0 | 15.0 | 0.00 | 0.00 | 0.00 | 54 | 1010.9 |
| 20260504041520 | 47 | 224 | 8.0 | 14.0 | 0.00 | 0.00 | 0.00 | 54 | 1010.9 |
| 20260504041031 | 47 | 255 | 7.0 | 14.0 | 0.00 | 0.00 | 0.00 | 54 | 1010.7 |
| 20260504040520 | 47 | 224 | 8.0 | 15.0 | 0.00 | 0.00 | 0.00 | 54 | 1010.9 |
| 20260504040019 | 47 | 240 | 7.0 | 15.0 | 0.00 | 0.00 | 0.00 | 54 | 1010.7 |
| 20260504035520 | 47 | 245 | 7.0 | 12.0 | 0.00 | 0.00 | 0.00 | 54 | 1010.7 |
| 20260504035019 | 47 | 242 | 7.0 | 14.0 | 0.00 | 0.00 | 0.00 | 54 | 1010.6 |
| 20260504034530 | 47 | 231 | 8.0 | 15.0 | 0.00 | 0.00 | 0.00 | 53 | 1010.6 |
| 20260504034031 | 47 | 226 | 8.0 | 15.0 | 0.00 | 0.00 | 0.00 | 53 | 1010.6 |
| 20260504033531 | 47 | 259 | 9.0 | 12.0 | 0.00 | 0.00 | 0.00 | 53 | 1010.6 |
| 20260504033021 | 47 | 226 | 6.0 | 14.0 | 0.00 | 0.00 | 0.00 | 54 | 1010.5 |
| 20260504032532 | 47 | 231 | 6.0 | 14.0 | 0.00 | 0.00 | 0.00 | 53 | 1010.7 |
| 20260504032020 | 47 | 253 | 6.0 | 11.0 | 0.00 | 0.00 | 0.00 | 54 | 1010.6 |
| 20260504031520 | 46 | 235 | 8.0 | 11.0 | 0.00 | 0.00 | 0.00 | 53 | 1010.6 |
| 20260504031020 | 46 | 245 | 6.0 | 10.0 | 0.00 | 0.00 | 0.00 | 54 | 1010.7 |
| 20260504030520 | 46 | 219 | 6.0 | 9.0 | 0.00 | 0.00 | 0.00 | 53 | 1010.7 |
| 20260504030020 | 46 | 236 | 6.0 | 9.0 | 0.00 | 0.00 | 0.00 | 53 | 1010.6 |
| 20260504025520 | 46 | 227 | 6.0 | 9.0 | 0.00 | 0.00 | 0.00 | 53 | 1010.7 |
| 20260504025020 | 46 | 266 | 6.0 | 9.0 | 0.00 | 0.00 | 0.00 | 53 | 1010.7 |
| 20260504024531 | 46 | 256 | 5.0 | 8.0 | 0.00 | 0.00 | 0.00 | 54 | 1010.7 |
| 20260504024020 | 46 | 253 | 6.0 | 8.0 | 0.00 | 0.00 | 0.00 | 53 | 1010.7 |
| 20260504023520 | 46 | 236 | 5.0 | 7.0 | 0.00 | 0.00 | 0.00 | 54 | 1010.7 |
| 20260504023037 | 46 | 239 | 5.0 | 7.0 | 0.00 | 0.00 | 0.00 | 54 | 1010.7 |
| 20260504022532 | 46 | 255 | 3.0 | 8.0 | 0.00 | 0.00 | 0.00 | 53 | 1010.7 |
| 20260504022032 | 46 | 253 | 5.0 | 8.0 | 0.00 | 0.00 | 0.00 | 53 | 1010.9 |
| 20260504021531 | 46 | 245 | 4.0 | 7.0 | 0.00 | 0.00 | 0.00 | 52 | 1010.9 |
| 20260504021020 | 46 | 235 | 4.0 | 7.0 | 0.00 | 0.00 | 0.00 | 52 | 1010.9 |
| 20260504020520 | 46 | 250 | 3.0 | 6.0 | 0.00 | 0.00 | 0.00 | 52 | 1010.9 |
| 20260504020023 | 46 | 225 | 4.0 | 8.0 | 0.00 | 0.00 | 0.00 | 52 | 1010.9 |
| 20260504015520 | 47 | 236 | 4.0 | 8.0 | 0.00 | 0.00 | 0.00 | 51 | 1010.7 |
| 20260504015020 | 47 | 234 | 4.0 | 7.0 | 0.00 | 0.00 | 0.00 | 50 | 1010.7 |
| 20260504014521 | 47 | 240 | 5.0 | 8.0 | 0.00 | 0.00 | 0.00 | 50 | 1010.7 |
| 20260504014021 | 47 | 214 | 5.0 | 9.0 | 0.00 | 0.00 | 0.00 | 50 | 1010.6 |
| 20260504013542 | 48 | 252 | 6.0 | 9.0 | 0.00 | 0.00 | 0.00 | 49 | 1010.6 |
| 20260504013023 | 48 | 244 | 3.0 | 8.0 | 0.00 | 0.00 | 0.00 | 50 | 1010.6 |
| 20260504012512 | 48 | 243 | 4.0 | 9.0 | 0.00 | 0.00 | 0.00 | 49 | 1010.5 |
| 20260504012024 | 48 | 202 | 5.0 | 9.0 | 0.00 | 0.00 | 0.00 | 49 | 1010.4 |
| 20260504011513 | 48 | 218 | 5.0 | 7.0 | 0.00 | 0.00 | 0.00 | 49 | 1010.3 |
| 20260504011013 | 48 | 234 | 4.0 | 7.0 | 0.00 | 0.00 | 0.00 | 50 | 1010.3 |
| 20260504010523 | 48 | 221 | 5.0 | 9.0 | 0.00 | 0.00 | 0.00 | 49 | 1010.2 |
| 20260504010013 | 48 | 246 | 4.0 | 9.0 | 0.00 | 0.00 | 0.00 | 49 | 1010.3 |
| 20260504005512 | 48 | 238 | 4.0 | 9.0 | 0.00 | 0.00 | 0.00 | 50 | 1010.2 |
| 20260504005023 | 48 | 224 | 4.0 | 9.0 | 0.00 | 0.00 | 0.00 | 49 | 1010.3 |
| 20260504004512 | 48 | 240 | 3.0 | 6.0 | 0.00 | 0.00 | 0.00 | 50 | 1010.3 |
| 20260504004012 | 48 | 234 | 4.0 | 6.0 | 0.00 | 0.00 | 0.00 | 49 | 1010.2 |
| 20260504003512 | 48 | 235 | 4.0 | 6.0 | 0.00 | 0.00 | 0.00 | 49 | 1010.2 |
| 20260504003013 | 48 | 236 | 3.0 | 6.0 | 0.00 | 0.00 | 0.00 | 49 | 1010.2 |
| 20260504002512 | 48 | 236 | 3.0 | 5.0 | 0.00 | 0.00 | 0.00 | 48 | 1010.1 |
| 20260504002016 | 49 | 231 | 3.0 | 7.0 | 0.00 | 0.00 | 0.00 | 48 | 1010.0 |
| 20260504001513 | 49 | 214 | 3.0 | 7.0 | 0.00 | 0.00 | 0.00 | 47 | 1010.0 |
| 20260504001013 | 49 | 234 | 2.0 | 6.0 | 0.00 | 0.00 | 0.00 | 47 | 1010.0 |
| 20260504000512 | 49 | 224 | 3.0 | 6.0 | 0.00 | 0.00 | 0.00 | 46 | 1009.9 |
| 20260504000013 | 50 | 198 | 2.0 | 6.0 | 0.00 | 0.00 | 0.00 | 46 | 1009.9 |
| 20260503235514 | 50 | 268 | 3.0 | 7.0 | 0.00 | 0.00 | 0.00 | 46 | 1009.9 |
| 20260503235012 | 50 | 216 | 1.0 | 11.0 | 0.00 | 0.00 | 0.00 | 46 | 1009.9 |
| 20260503234523 | 50 | 243 | 2.0 | 11.0 | 0.00 | 0.00 | 0.00 | 45 | 1009.9 |
| 20260503234023 | 50 | 228 | 2.0 | 10.0 | 0.00 | 0.00 | 0.00 | 46 | 1009.8 |
| 20260503233513 | 50 | 164 | 4.0 | 10.0 | 0.00 | 0.00 | 0.00 | 46 | 1009.8 |
| 20260503233013 | 51 | 256 | 3.0 | 6.0 | 0.00 | 0.00 | 0.00 | 46 | 1009.8 |
| 20260503232513 | 51 | 210 | 3.0 | 6.0 | 0.00 | 0.00 | 0.00 | 45 | 1009.7 |
| 20260503232013 | 51 | 209 | 3.0 | 6.0 | 0.00 | 0.00 | 0.00 | 44 | 1009.7 |
| 20260503231513 | 52 | 243 | 3.0 | 11.0 | 0.00 | 0.00 | 0.00 | 43 | 1009.7 |
| 20260503231013 | 52 | 249 | 6.0 | 11.0 | 0.00 | 0.00 | 0.00 | 43 | 1009.7 |
| 20260503230513 | 51 | 204 | 4.0 | 12.0 | 0.00 | 0.00 | 0.00 | 44 | 1009.8 |
| 20260503230024 | 51 | 234 | 5.0 | 12.0 | 0.00 | 0.00 | 0.00 | 45 | 1009.8 |
| 20260503225513 | 52 | 250 | 4.0 | 9.0 | 0.00 | 0.00 | 0.00 | 45 | 1009.7 |
| 20260503225013 | 52 | 43 | 3.0 | 8.0 | 0.00 | 0.00 | 0.00 | 43 | 1009.7 |
| 20260503224513 | 52 | 269 | 5.0 | 11.0 | 0.00 | 0.00 | 0.00 | 43 | 1009.7 |
| 20260503224013 | 52 | 287 | 4.0 | 15.0 | 0.00 | 0.00 | 0.00 | 43 | 1009.6 |
| 20260503223514 | 52 | 220 | 7.0 | 15.0 | 0.00 | 0.00 | 0.00 | 42 | 1009.7 |
| 20260503223012 | 52 | 278 | 4.0 | 12.0 | 0.00 | 0.00 | 0.00 | 43 | 1009.6 |
| 20260503222524 | 52 | 245 | 5.0 | 13.0 | 0.00 | 0.00 | 0.00 | 42 | 1009.6 |
| 20260503222015 | 52 | 183 | 6.0 | 13.0 | 0.00 | 0.00 | 0.00 | 43 | 1009.6 |
| 20260503221513 | 52 | 212 | 4.0 | 16.0 | 0.00 | 0.00 | 0.00 | 42 | 1009.6 |
| 20260503221014 | 53 | 258 | 7.0 | 16.0 | 0.00 | 0.00 | 0.00 | 42 | 1009.6 |
| 20260503220513 | 53 | 254 | 4.0 | 13.0 | 0.00 | 0.00 | 0.00 | 41 | 1009.6 |
| 20260503220014 | 53 | 326 | 5.0 | 18.0 | 0.00 | 0.00 | 0.00 | 42 | 1009.7 |
| 20260503215525 | 53 | 263 | 7.0 | 18.0 | 0.00 | 0.00 | 0.00 | 41 | 1009.6 |
| 20260503215013 | 53 | 236 | 8.0 | 13.0 | 0.00 | 0.00 | 0.00 | 41 | 1009.6 |
| 20260503214513 | 53 | 271 | 5.0 | 12.0 | 0.00 | 0.00 | 0.00 | 42 | 1009.6 |
| 20260503214013 | 52 | 323 | 6.0 | 13.0 | 0.00 | 0.00 | 0.00 | 41 | 1009.5 |
| 20260503213513 | 52 | 285 | 7.0 | 16.0 | 0.00 | 0.00 | 0.00 | 42 | 1009.5 |
| 20260503213013 | 53 | 295 | 6.0 | 16.0 | 0.00 | 0.00 | 0.00 | 39 | 1009.5 |
| 20260503212514 | 53 | 297 | 5.0 | 14.0 | 0.00 | 0.00 | 0.00 | 40 | 1009.5 |
| 20260503212013 | 52 | 178 | 7.0 | 15.0 | 0.00 | 0.00 | 0.00 | 39 | 1009.5 |
| 20260503211513 | 53 | 243 | 10.0 | 21.0 | 0.00 | 0.00 | 0.00 | 38 | 1009.3 |
| 20260503211013 | 54 | 229 | 11.0 | 21.0 | 0.00 | 0.00 | 0.00 | 38 | 1009.4 |
| 20260503210513 | 54 | 292 | 7.0 | 18.0 | 0.00 | 0.00 | 0.00 | 39 | 1009.2 |
| 20260503210014 | 54 | 239 | 7.0 | 21.0 | 0.00 | 0.00 | 0.00 | 38 | 1009.2 |
| 20260503205514 | 54 | 226 | 8.0 | 21.0 | 0.00 | 0.00 | 0.00 | 38 | 1009.3 |
| 20260503205013 | 54 | 295 | 5.0 | 12.0 | 0.00 | 0.00 | 0.00 | 38 | 1009.2 |
| 20260503204513 | 54 | 217 | 6.0 | 11.0 | 0.00 | 0.00 | 0.00 | 36 | 1009.2 |
| 20260503204024 | 53 | 226 | 4.0 | 11.0 | 0.00 | 0.00 | 0.00 | 37 | 1009.2 |
| 20260503203524 | 53 | 287 | 3.0 | 14.0 | 0.00 | 0.00 | 0.00 | 37 | 1009.2 |
| 20260503203013 | 54 | 320 | 6.0 | 14.0 | 0.00 | 0.00 | 0.00 | 35 | 1009.3 |
| 20260503202514 | 53 | 324 | 5.0 | 11.0 | 0.00 | 0.00 | 0.00 | 38 | 1009.2 |
| 20260503202024 | 52 | 283 | 5.0 | 17.0 | 0.00 | 0.00 | 0.00 | 37 | 1009.2 |
| 20260503201525 | 52 | 26 | 4.0 | 17.0 | 0.00 | 0.00 | 0.00 | 39 | 1009.3 |
| 20260503201024 | 52 | 275 | 9.0 | 19.0 | 0.00 | 0.00 | 0.00 | 37 | 1009.4 |
| 20260503200513 | 52 | 247 | 6.0 | 16.0 | 0.00 | 0.00 | 0.00 | 38 | 1009.5 |
| 20260503200013 | 52 | 33 | 5.0 | 18.0 | 0.00 | 0.00 | 0.00 | 37 | 1009.5 |
| 20260503195537 | 52 | 307 | 6.0 | 18.0 | 0.00 | 0.00 | 0.00 | 37 | 1009.5 |
| 20260503195014 | 52 | 295 | 5.0 | 19.0 | 0.00 | 0.00 | 0.00 | 37 | 1009.6 |
| 20260503194514 | 52 | 242 | 4.0 | 19.0 | 0.00 | 0.00 | 0.00 | 39 | 1009.5 |
| 20260503194014 | 52 | 252 | 9.0 | 19.0 | 0.00 | 0.00 | 0.00 | 38 | 1009.6 |
| 20260503193525 | 51 | 270 | 6.0 | 17.0 | 0.00 | 0.00 | 0.00 | 39 | 1009.7 |
| 20260503193015 | 51 | 286 | 5.0 | 17.0 | 0.00 | 0.00 | 0.00 | 40 | 1009.8 |
| 20260503192526 | 51 | 270 | 8.0 | 27.0 | 0.00 | 0.00 | 0.00 | 40 | 1009.9 |
| 20260503192015 | 51 | 229 | 8.0 | 21.0 | 0.00 | 0.00 | 0.00 | 39 | 1009.6 |
| 20260503191537 | 51 | 243 | 6.0 | 13.0 | 0.00 | 0.00 | 0.00 | 39 | 1010.0 |
| 20260503191015 | 51 | 276 | 7.0 | 13.0 | 0.00 | 0.00 | 0.00 | 41 | 1010.0 |
| 20260503190515 | 50 | 216 | 6.0 | 16.0 | 0.00 | 0.00 | 0.00 | 42 | 1010.2 |
| 20260503190013 | 50 | 256 | 6.0 | 16.0 | 0.00 | 0.00 | 0.00 | 42 | 1010.3 |
| 20260503185514 | 50 | 273 | 9.0 | 18.0 | 0.00 | 0.00 | 0.00 | 41 | 1010.4 |
| 20260503185016 | 50 | 205 | 10.0 | 21.0 | 0.00 | 0.00 | 0.00 | 41 | 1010.3 |
| 20260503184515 | 50 | 247 | 9.0 | 21.0 | 0.00 | 0.00 | 0.00 | 41 | 1010.3 |
| 20260503184015 | 49 | 246 | 7.0 | 18.0 | 0.00 | 0.00 | 0.00 | 42 | 1010.5 |
| 20260503183515 | 49 | 246 | 9.0 | 18.0 | 0.00 | 0.00 | 0.00 | 42 | 1010.5 |
| 20260503183014 | 49 | 206 | 6.0 | 17.0 | 0.00 | 0.00 | 0.00 | 43 | 1010.4 |
| 20260503182516 | 49 | 281 | 7.0 | 19.0 | 0.00 | 0.00 | 0.00 | 42 | 1010.6 |
| 20260503182015 | 49 | 244 | 6.0 | 19.0 | 0.00 | 0.00 | 0.00 | 43 | 1010.5 |
| 20260503181516 | 49 | 271 | 6.0 | 18.0 | 0.00 | 0.00 | 0.00 | 42 | 1010.5 |
| 20260503181015 | 48 | 250 | 6.0 | 17.0 | 0.00 | 0.00 | 0.00 | 45 | 1010.5 |
| 20260503180515 | 48 | 298 | 6.0 | 17.0 | 0.00 | 0.00 | 0.00 | 44 | 1010.6 |
| 20260503180016 | 47 | 299 | 5.0 | 16.0 | 0.00 | 0.00 | 0.00 | 42 | 1010.7 |
| 20260503175515 | 48 | 283 | 5.0 | 20.0 | 0.00 | 0.00 | 0.00 | 42 | 1010.9 |
| 20260503175015 | 48 | 259 | 6.0 | 17.0 | 0.00 | 0.00 | 0.00 | 43 | 1010.9 |
| 20260503174526 | 48 | 269 | 5.0 | 15.0 | 0.00 | 0.00 | 0.00 | 43 | 1010.7 |
| 20260503174015 | 47 | 267 | 7.0 | 15.0 | 0.00 | 0.00 | 0.00 | 45 | 1011.0 |
| 20260503173515 | 47 | 263 | 10.0 | 17.0 | 0.00 | 0.00 | 0.00 | 45 | 1011.0 |
| 20260503173015 | 46 | 104 | 4.0 | 12.0 | 0.00 | 0.00 | 0.00 | 45 | 1010.9 |
| 20260503172517 | 46 | 231 | 6.0 | 13.0 | 0.00 | 0.00 | 0.00 | 44 | 1011.0 |
| 20260503172015 | 46 | 214 | 5.0 | 11.0 | 0.00 | 0.00 | 0.00 | 45 | 1011.0 |
| 20260503171516 | 46 | 332 | 3.0 | 15.0 | 0.00 | 0.00 | 0.00 | 44 | 1011.0 |
| 20260503171014 | 46 | 285 | 9.0 | 16.0 | 0.00 | 0.00 | 0.00 | 43 | 1011.0 |
| 20260503170516 | 46 | 260 | 6.0 | 16.0 | 0.00 | 0.00 | 0.00 | 43 | 1011.0 |
| 20260503150516 | 42 | 203 | 8.0 | 15.0 | 0.00 | 0.00 | 0.00 | 51 | 1011.3 |
| 20260503131027 | 37 | 349 | 3.0 | 12.0 | 0.00 | 0.00 | 0.00 | 73 | 1011.8 |
| 20260503130516 | 38 | 284 | 6.0 | 15.0 | 0.00 | 0.00 | 0.00 | 73 | 1011.8 |